CST,Max TemperatureF,Mean TemperatureF,Min TemperatureF,Max Dew PointF,MeanDew PointF,Min DewpointF,Max Humidity, Mean Humidity, Min Humidity, Max Sea Level PressureIn, Mean Sea Level PressureIn, Min Sea Level PressureIn, Max VisibilityMiles, Mean VisibilityMiles, Min VisibilityMiles, Max Wind SpeedMPH, Mean Wind SpeedMPH, Max Gust SpeedMPH,PrecipitationIn, CloudCover, Events, WindDirDegrees
2014-2-1,29,24,19,27,20,17,92,87,81,30.18,29.95,29.82,10,4,2,16,10,20,0.46,8,Rain,5
2014-2-2,22,11,0,17,4,-3,84,73,61,30.40,30.32,30.17,10,9,2,18,9,22,T,2,Snow,335
2014-2-3,22,8,-6,11,3,-8,95,79,62,30.45,30.39,30.35,10,10,10,9,4,11,0.00,0,,72
2014-2-4,20,16,11,16,14,6,84,80,76,30.37,30.18,30.05,10,2,0,24,13,27,0.09,7,Fog-Snow,49
2014-2-5,17,8,-1,14,7,-7,84,75,66,30.63,30.30,30.04,10,4,1,25,16,31,0.01,7,Snow,331
2014-2-6,8,-1,-10,-6,-9,-14,83,69,55,30.66,30.58,30.53,10,9,2,14,8,17,0.00,0,,278
2014-2-7,14,2,-11,4,-4,-14,83,68,53,30.52,30.45,30.32,10,10,10,12,5,13,T,5,,200
2014-2-8,23,18,13,17,12,5,88,78,67,30.30,30.20,30.14,10,10,5,13,5,17,0.00,8,,172
2014-2-9,23,13,3,18,10,-4,88,75,61,30.45,30.27,30.15,10,7,2,16,10,19,T,6,Snow,327
2014-2-10,8,1,-7,-5,-8,-10,82,71,60,30.56,30.52,30.46,10,10,10,13,7,15,0.00,0,,337
2014-2-11,13,2,-10,-1,-7,-14,79,66,53,30.59,30.50,30.35,10,10,9,9,4,12,0.00,1,,118
2014-2-12,30,16,1,11,3,-5,76,56,36,30.35,30.17,30.02,10,10,10,13,6,16,0.00,2,,160
2014-2-13,40,26,12,27,18,4,78,67,56,29.99,29.81,29.68,10,10,9,24,11,32,0.00,0,,224
2014-2-14,24,13,2,16,12,-2,92,80,67,30.14,29.82,29.66,10,4,0,23,12,27,0.19,6,Fog-Snow,4
2014-2-15,27,13,-2,18,8,-4,95,78,60,30.16,30.05,29.92,10,7,0,15,7,20,0.02,5,Snow,183
2014-2-16,29,26,22,21,18,15,81,72,63,30.27,30.16,29.97,10,9,6,22,11,26,0.00,6,,11
2014-2-17,41,32,22,32,26,16,92,78,64,30.12,29.88,29.80,10,4,0,24,14,37,0.45,6,Fog-Rain-Snow-Thunderstorm,180
2014-2-18,50,40,30,31,26,22,70,55,39,29.99,29.82,29.70,10,10,10,24,13,31,0.00,0,,214
2014-2-19,44,38,32,35,31,28,92,77,62,30.03,29.90,29.71,10,10,10,25,8,35,0.20,2,Rain-Thunderstorm,184
2014-2-20,62,49,35,53,37,24,93,82,70,29.68,29.44,29.13,10,6,0,41,17,56,0.10,6,Fog-Rain-Thunderstorm,125
2014-2-21,48,38,27,26,21,15,64,51,38,29.93,29.80,29.61,10,10,10,29,15,36,0.00,3,,260
2014-2-22,42,34,26,29,25,15,85,72,59,30.12,30.01,29.93,,,,17,9,20,0.00,3,,39
2014-2-23,32,26,20,14,12,10,71,58,45,30.37,30.29,30.14,,,,22,11,27,0.00,4,,356
2014-2-24,27,24,20,16,12,10,77,64,50,30.41,30.35,30.28,10,10,10,12,6,13,0.00,6,,5
2014-2-25,22,17,12,18,10,-1,88,71,53,30.41,30.33,30.28,10,8,2,22,12,28,T,6,Snow,339
2014-2-26,24,13,1,9,-2,-11,66,49,32,30.42,30.19,29.90,10,10,10,22,15,29,0.00,0,,279
2014-2-27,24,17,9,11,-4,-12,59,45,30,30.22,30.12,29.91,10,10,10,26,12,33,0.00,0,,4
2014-2-28,44,27,10,20,10,-2,73,52,31,30.14,30.01,29.91,10,10,10,21,12,28,0.00,1,,149